Regional Weather Roundup
Issued by NWS Sioux Falls, SD

Home | Current Version | Previous Version | Graphics & Text | Print | Product List | Glossary Off
Versions: 1 2 3 4 5 6 7 8 9 10 11 12 13 14 15 16 17 18 19 20 21 22 23 24 25 26 27 28 29 30 31 32 33 34 35 36 37 38 39 40 41 42 43 44 45 46 47 48 49 50

000
ASUS43 KFSD 212102
RWRFSD

WEATHER ROUNDUP FOR SE SOUTH DAKOTA/SW MINNESOTA/NW IOWA
NATIONAL WEATHER SERVICE SIOUX FALLS SD
300 PM CST SAT JAN 21 2017

NOTE: "FAIR" INDICATES FEW OR NO CLOUDS BELOW 12,000 FEET WITH NO
SIGNIFICANT WEATHER AND OR OBSTRUCTIONS TO VISIBILITY.


SDZ038>040-050-052>070-212200-
SOUTHEAST SOUTH DAKOTA

CITY           SKY/WX    TMP DP  RH WIND       PRES   REMARKS
BROOKINGS      CLOUDY    32  31  96 W8        29.37R FOG     WCI  25
CHAMBERLAIN    SUNNY     36  32  85 NW8       29.42R
HURON          CLOUDY    31  28  89 NW5       29.41R WCI  26
MADISON        CLOUDY    28  28 100 W9          N/A  WCI  20
MITCHELL       CLOUDY    33  29  85 NW13      29.42R WCI  24
SIOUX FALLS    CLOUDY    31  29  92 W10       29.41R WCI  22
WINNER         FAIR      46  31  55 W15       29.41R
YANKTON        CLOUDY    36  28  75 W8        29.42R
$$

MNZ071-072-080-081-089-090-097-098-212200-
SOUTHWEST MINNESOTA

CITY           SKY/WX    TMP DP  RH WIND       PRES   REMARKS
FAIRMONT       CLOUDY    38  37  97 SW3       29.40R FOG
JACKSON        CLOUDY    36  36 100 SW7       29.38S FOG
LUVERNE        CLOUDY    30  30 100 SW10      29.40R WCI  21
MARSHALL       CLOUDY    36  36 100 CALM      29.39R FOG
MONTEVIDEO     SNOW      36  36 100 SE5       29.40R VSB<1/4
PIPESTONE      CLOUDY    34  34 100 W9        29.37R FOG     WCI  26
REDWOOD FALLS  FOG       36  35  96 E3        29.39R VSB 1/4
TRACY          CLOUDY    38  38 100 CALM      29.38R FOG
WINDOM         CLOUDY    37  37 100 SW6       29.38R
WORTHINGTON    LGT RAIN  34  33  96 W15       29.38R VSB 1/4 WCI  24
$$

IAZ001>003-012>014-020>022-031-032-NEZ013-014-SDZ071-212200-
NORTHWEST IOWA

CITY           SKY/WX    TMP DP  RH WIND       PRES   REMARKS
CHEROKEE       CLOUDY    38  37  99 W8        29.42R
DENISON        CLOUDY    43  39  87 W9        29.41R
ESTHERVILLE    FOG       37  37 100 SW8       29.38R VSB 1/4
LE MARS        CLOUDY    36  32  87 W8        29.44R
ORANGE CITY    CLOUDY    32  32 100 W10       29.42R WCI  24
SHELDON        CLOUDY    32  32 100 W13       29.40R WCI  22
SIOUX CITY     CLOUDY    45  38  76 N8        29.43R
SPENCER        CLOUDY    37  36  96 W14       29.40R FOG
STORM LAKE     CLOUDY    39  37  93 W9        29.41R FOG
$$

ABBREVIATIONS USED IN REMARKS
   TC - TEMPERATURE IN CELSIUS
  WCI - WIND CHILL INDEX
   HX - HEAT INDEX
  VSB - VISIBILITY





USA.gov is the U.S. government's official web portal to all federal, state and local government web resources and services.